User: anonymous
Location: Oshawa
(43.9000°N, 78.8670°W)
Time: 13:38:20
(UTC-04:00)
Language:

ITAMSAT 1 - Orbit

View from above orbital plane
View from above orbital plane
View from above satellite
View from above satellite

Ground track
Ground track

The orbit data is extracted from the following two-line orbital elements,

1 22826U 93061D   14202.80910174  .00000005  00000-0  18994-4 0  4757
2 22826 098.6579 148.9224 0009078 181.6728 178.4426 14.30032126 85864
Epoch (UTC): 21 July 2014 19:25:06
Eccentricity: 0.0009078
inclination: 98.6579°
perigee height: 785 km
apogee height: 798 km
right ascension of ascending node: 148.9224°
argument of perigee: 181.6728°
revolutions per day: 14.30032126
mean anomaly at epoch: 178.4426°
orbit number at epoch: 8586

The dashed part of the orbit path shows where the satellite is in the earth's shadow,  

DLR